Traverse City, MI

12:58 PM EST on January 19, 2018 (GMT -0500)
Cherry Capital

Weather History for KTVC - November, 2012

Change the Weather History Date:

Friday, November 30, 2012

  Actual Average Record
Temperature  
Mean Temperature 33 °F 32 °F  
Max Temperature 35 °F 38 °F 65 °F (1998)
Min Temperature 30 °F 26 °F 4 °F (1936)
Degree Days  
Heating Degree Days 32 33  
Month to date heating degree days 761 831  
Since 1 July heating degree days 1482 1619  
Moisture  
Dew Point 26 °F    
Average Humidity 79    
Maximum Humidity 89    
Minimum Humidity 69    
Precipitation  
Precipitation T in 0.08 in 1.10 in (1913)
Month to date precipitation 0.75 2.70  
Year to date precipitation 27.85 30.56  
Sea Level Pressure  
Sea Level Pressure 30.27 in    
Wind  
Wind Speed 9 mph (East)    
Max Wind Speed 16 mph    
Max Gust Speed 25 mph    
Visibility 10 miles    
Events Snow    
T = Trace of Precipitation, MM = Missing Value Source: NWS Daily Summary

Daily Weather History Graph

Daily Weather History Graph

Search for Another Location

Airport or City:

Trip Planner

Search our weather history database for the weather conditions in past years. The results will help you decide how hot, cold, wet, or windy it might be!

Date:

Astronomy

Nov. 30, 2012 Rise Set
Actual Time 7:58 AM EST 5:03 PM EST
Civil Twilight 7:25 AM EST 5:36 PM EST
Nautical Twilight 6:49 AM EST 6:12 PM EST
Astronomical Twilight 6:14 AM EST 6:47 PM EST
Moon 6:58 PM EST (11/30) 9:30 AM EST (11/30)
Length of Visible Light 10h 10m
Length of Day
9h 04m
Waning Gibbous, 96% of the Moon is Illuminated
Nov 30
Waning Gibbous
Dec 6
Last Quarter
Dec 13
New
Dec 20
First Quarter
Dec 28
Full

Hourly Weather History & Observations

Time (EST) Temp. Windchill Dew Point Humidity Pressure Visibility Wind Dir Wind Speed Gust Speed Precip Events Conditions
12:53 AM 32.0 °F 23.0 °F 25.0 °F 75% 30.27 in 10.0 mi ESE 11.5 mph - N/A   Overcast
1:53 AM 32.0 °F 24.2 °F 25.0 °F 75% 30.27 in 10.0 mi East 9.2 mph - N/A   Overcast
2:53 AM 30.9 °F 23.5 °F 25.0 °F 79% 30.27 in 10.0 mi East 8.1 mph - N/A   Overcast
3:08 AM 30.2 °F 20.2 °F 24.8 °F 80% 30.25 in 10.0 mi East 12.7 mph - N/A   Overcast
3:53 AM 30.9 °F 23.5 °F 25.0 °F 79% 30.27 in 10.0 mi East 8.1 mph - N/A   Overcast
4:53 AM 30.0 °F 20.5 °F 25.0 °F 82% 30.26 in 10.0 mi East 11.5 mph - N/A   Overcast
5:53 AM 30.0 °F 22.4 °F 25.0 °F 82% 30.26 in 10.0 mi East 8.1 mph - N/A   Overcast
6:53 AM 30.0 °F 19.1 °F 25.0 °F 82% 30.26 in 10.0 mi East 15.0 mph 18.4 mph N/A   Overcast
7:53 AM 30.0 °F 21.1 °F 25.0 °F 82% 30.27 in 10.0 mi East 10.4 mph 25.3 mph N/A   Overcast
8:53 AM 30.0 °F 21.1 °F 24.1 °F 79% 30.28 in 10.0 mi East 10.4 mph - N/A   Overcast
9:12 AM 30.2 °F 20.8 °F 24.8 °F 80% 30.27 in 10.0 mi ESE 11.5 mph - N/A   Overcast
9:53 AM 30.9 °F 23.5 °F 24.1 °F 76% 30.30 in 10.0 mi ESE 8.1 mph 18.4 mph N/A   Overcast
10:53 AM 30.9 °F 21.2 °F 24.1 °F 76% 30.32 in 9.0 mi East 12.7 mph 18.4 mph 0.00 in Snow Light Snow
11:53 AM 30.9 °F 22.2 °F 24.1 °F 76% 30.30 in 9.0 mi East 10.4 mph 17.3 mph 0.00 in Snow Light Snow
12:53 PM 32.0 °F 23.0 °F 24.1 °F 73% 30.28 in 10.0 mi ESE 11.5 mph - 0.00 in   Overcast
1:53 PM 33.1 °F 24.9 °F 25.0 °F 72% 30.26 in 10.0 mi East 10.4 mph - N/A   Overcast
2:53 PM 33.1 °F 26.9 °F 26.1 °F 75% 30.26 in 10.0 mi East 6.9 mph - N/A   Overcast
3:53 PM 33.1 °F 25.5 °F 27.0 °F 78% 30.26 in 10.0 mi East 9.2 mph - N/A   Overcast
4:53 PM 34.0 °F 28.0 °F 27.0 °F 75% 30.27 in 10.0 mi East 6.9 mph - N/A   Overcast
5:53 PM 34.0 °F 27.2 °F 28.0 °F 79% 30.30 in 10.0 mi East 8.1 mph - N/A   Overcast
6:01 PM 33.8 °F 28.6 °F 28.4 °F 81% 30.27 in 10.0 mi East 5.8 mph - N/A   Overcast
7:40 PM 33.8 °F 28.6 °F 28.4 °F 81% 30.28 in 10.0 mi ESE 5.8 mph - N/A   Overcast
7:53 PM 33.1 °F 26.1 °F 30.0 °F 89% 30.29 in 10.0 mi ESE 8.1 mph - N/A   Overcast
8:53 PM 34.0 °F 29.8 °F 30.0 °F 85% 30.29 in 8.0 mi ESE 4.6 mph - N/A   Overcast
9:53 PM 34.0 °F 26.6 °F 30.0 °F 85% 30.27 in 8.0 mi ESE 9.2 mph 17.3 mph N/A   Overcast
10:53 PM 34.0 °F 28.0 °F 30.9 °F 89% 30.26 in 7.0 mi ESE 6.9 mph - N/A   Overcast
11:53 PM 35.1 °F 28.6 °F 30.9 °F 85% 30.27 in 7.0 mi ESE 8.1 mph - N/A   Overcast